Regional Weather Roundup
Issued by NWS

Home | Current Version | Previous Version | Graphics & Text | Print | Product List | Glossary Off
Versions: 1 2 3 4 5 6 7 8 9 10 11 12 13 14 15 16 17 18 19 20 21 22 23 24 25 26 27 28 29 30 31 32 33 34 35 36 37 38 39 40 41 42 43 44 45 46 47 48 49 50

000
ASUS43 KTOP 100508
RWRKS

WEATHER ROUNDUP FOR KANSAS
NATIONAL WEATHER SERVICE GOODLAND KS
1100 PM CST TUE FEB 09 2016

NOTE:  "FAIR" INDICATES FEW OR NO CLOUDS BELOW 12,000 FEET WITH NO
SIGNIFICANT WEATHER AND/OR OBSTRUCTIONS TO VISIBILITY.

KSZ001>006-013>018-027>032-041>047-100600-
NORTHWEST KANSAS

CITY           SKY/WX    TMP DP  RH WIND       PRES   REMARKS
GOODLAND       CLEAR     37  27  67 W13       30.20F WCI  29
HAYS           CLOUDY    30  16  55 SW9       30.22F
HILL CITY      CLOUDY    32  24  72 SW8       30.20F
RUSSELL        CLOUDY    29  21  72 S8        30.21F
$$

KSZ061>065-074>080-084>089-100600-
SOUTHWEST KANSAS

CITY           SKY/WX    TMP DP  RH WIND       PRES   REMARKS
DODGE CITY     MOCLDY    27  19  72 S10       30.25S WCI  17
ELKHART          N/A     38  23  55 W9          N/A
GARDEN CITY    CLEAR     31  25  78 W9        30.23S
GREAT BEND     CLOUDY    28  16  59 SW6       30.24F
LIBERAL        CLEAR     30  19  64 W8        30.28R
PRATT          CLEAR     24  16  72 SW6       30.25F
$$

KSZ066>073-081>083-090>101-100600-
SOUTHEAST KANSAS

CITY           SKY/WX    TMP DP  RH WIND       PRES   REMARKS
CHANUTE        CLEAR     21   9  59 W6        30.31S
COFFEYVILLE    PTCLDY    23   8  52 CALM      30.34R
HUTCHINSON     CLEAR     28  14  55 S3        30.27S
MEDICINE LODGE   N/A     30  19  63 CALM      30.28F
NEWTON         CLEAR     21  10  63 E5        30.27F
PARSONS        CLEAR     20  10  65 NW6       30.33R
WICHITA INTL   PTCLDY    28  13  53 NE6       30.28F
WICHITA JABRA  CLEAR     24  13  62 E3        30.28F
WINFIELD       PTCLDY    28  13  53 E6        30.30F
$$

KSZ007>012-019>026-033>040-048>060-102>105-100600-
NORTHEAST KANSAS

CITY           SKY/WX    TMP DP  RH WIND       PRES   REMARKS
CONCORDIA      CLEAR     22  14  71 S3        30.23F
EMPORIA        CLEAR     18   9  68 W6        30.29S
LAWRENCE       CLEAR     17   9  70 W3        30.28F
MANHATTAN      CLEAR     19  12  74 SW3       30.27F
MARYSVILLE     CLOUDY    23  16  74 SW5       30.24F
OLATHE IND     CLEAR     20   8  60 W6        30.27F
OLATHE EXE     CLEAR     21   8  57 NW6       30.25F
SALINA         CLEAR     24  13  62 SE6       30.27F
TOPEKA BILLARD PTCLDY    24  11  57 W6        30.28F
TOPEKA FORBES  PTCLDY    20  10  65 W7        30.27S
$$



USA.gov is the U.S. government's official web portal to all federal, state and local government web resources and services.